Location: Elbart
(49.6135°N, 11.9134°E)
Time: 02:01:18
(UTC+00:00)

Iridium 4 Rocket - Pass Details

Date: 09 April 2020
Orbit: 586 x 904 km, 86.9° (Epoch: 03 June)

Event Time Altitude Azimuth Distance (km) Brightness Sun altitude
Rises 19:51:24 0° 359° (N) 2,863 7.0 -17.6°
Reaches altitude 10° 19:53:39 10° 2° (N) 1,937 6.1 -17.8°
Maximum altitude 19:57:49 65° 85° (E) 649 2.9 -18.4°
Enters shadow 19:59:07 41° 151° (SSE) 860 3.3 -18.5°
